This demonstration page uses our WeatherBlox Daily Observations layout. Learn more.

Left ArrowRight Arrow

41.55636, -103.73856

Hourly Observations for May 26, 2019

Temp ( °F °C ) Dew Point ( °F °C ) Humidity (%) Winds ( mph kmh ) Pressure ( in mb ) Visibility ( mi km ) Precip ( " mm )
6:58 pm 18:58 undefined 67 19.6 35 1.8 31 31 SSE 20 31 29.85 1011 10 16 0.00 0.00
7:58 pm 19:58 undefined 62 16.9 39 3.9 42 42 SSE 13 20 29.88 1012 10 16 0.00 0.00
8:58 pm 20:58 undefined 56 13.6 41 4.9 56 56 SE 15 24 29.90 1012 10 16 0.00 0.00
10:58 pm 22:58 undefined 55 12.6 44 6.8 68 68 SSE 20 31 29.89 1012 10 16 0.00 0.00
12:58 am 00:58 undefined 53 11.9 48 9.1 83 83 SSE 20 31 29.88 1012 10 16 0.00 0.00
1:58 am 01:58 Mostly Clear with Thunderstorms 54 12.1 50 10.2 88 88 SSE 13 20 29.88 1012 10 16 0.01 0.25
2:58 am 02:58 undefined 55 12.7 50 10 84 84 SSE 21 33 29.86 1011 10 16 0.00 0.00
3:59 am 03:59 Mostly Clear with Light Showers 53 11.7 48 9.1 84 84 SSE 15 24 29.87 1011 10 16 0.01 0.25
4:58 am 04:58 undefined 50 10.1 47 8.3 89 89 SSE 21 33 29.89 1012 10 16 0.00 0.00
5:58 am 05:58 Partly Cloudy with Fog 51 10.6 50 9.8 95 95 S 17 28 29.87 1011 0 0 0.00 0.00
6:58 am 06:58 undefined 53 11.4 52 10.9 97 97 S 10 17 29.89 1012 7 11 0.00 0.00
7:58 am 07:58 undefined 55 12.9 53 11.8 93 93 S 15 24 29.90 1013 7 11 0.00 0.00
8:58 am 08:58 Partly Cloudy with Mist and Fog 55 12.8 53 11.6 92 92 S 13 20 29.94 1014 6 10 0.00 0.00
9:58 am 09:58 Partly Cloudy with Mist and Fog 55 12.9 53 11.9 94 94 SSE 14 22 29.93 1014 3 5 0.00 0.00
10:58 am 10:58 undefined 58 14.5 54 12.3 87 87 SSE 17 28 29.91 1013 8 13 0.00 0.00
11:58 am 11:58 undefined 59 14.9 55 12.7 87 87 SSE 14 22 29.92 1013 10 16 0.00 0.00
12:58 pm 12:58 Partly Cloudy with Mist and Fog 58 14.5 55 12.7 89 89 SSE 18 30 29.91 1013 6 10 0.00 0.00
1:58 pm 13:58 undefined 62 16.4 55 12.8 79 79 SE 18 30 29.87 1011 10 16 0.00 0.00
2:58 pm 14:58 undefined 61 15.9 55 12.7 81 81 SE 17 28 29.83 1010 10 16 0.00 0.00
3:58 pm 15:58 undefined 62 16.7 54 12.4 76 76 SSE 17 28 29.80 1009 10 16 0.00 0.00
5:58 pm 17:58 undefined 58 14.7 53 11.6 82 82 SE 3 6 29.79 1009 10 16 0.00 0.00

Powered by AerisWeather